Flag for Canada Weather past 2 weeks in Oshawa, Ontario, Canada

Now
28 °F

Light snow. Ice fog.


Feels Like: 22 °F
Forecast: 1 / 28 °F
Wind: 6 mph from Northwest

Location: Toronto Buttonville

Current Time: Jan 29, 2015 at 10:04:07 PM

Latest Report: Jan 29, 2015 at 9:00 PM


Visibility: 2 mi

Pressure: 29.79 "Hg

Humidity: 93%

Dew point: 27 °F

Location of OshawaLocation

Historic Weather in Oshawa — Graph

°F

Oshawa temperature yesterday

Maximum temperature yesterday: 30 °F (at 3:00 PM)
Minimum temperature yesterday: 5 °F (at 6:00 AM)
Average temperature yesterday: 18 °F

Past Weeks' High & Low Weather Summary

 TemperatureHumidityPressure
High41 °F (Jan 18, 7:00 AM)100% (Jan 18, 10:00 AM)30.39 "Hg (Jan 18, 10:00 AM)
Low3 °F (Jan 21, 6:00 AM)26% (Jan 28, 4:00 PM)29.47 "Hg (Jan 24, 3:00 PM)
Average20 °F70%30.01 "Hg
* Reported Jan 14 8:00 PM — Jan 29 8:00 PM, Oshawa, Weather by CustomWeather, © 2014

Note: Actual official high and low records may vary slightly from our data, if they occured in-between our weather recording intervals... More about our weather records

Advertising

Oshawa weather history for previous 24 hours

 ConditionsComfort  
Time TempWeatherWind HumidityBarometerVisibility
8:00 PM
Jan 29
28 °FLight snow. Ice fog.7 mph93%29.77 "Hg1 mi
7:00 PM28 °FLight snow. Ice fog.6 mph100%29.76 "Hg1 mi
6:00 PM30 °FLight snow. Overcast.2 mph93%29.75 "Hg2 mi
5:00 PM28 °FSnow flurries. More clouds than sun.2 mph100%29.74 "Hg2 mi
4:00 PM28 °FSnow flurries. Ice fog.7 mph100%29.74 "Hg1 mi
3:51 PMN/ASnow flurries.5 mphN/AN/A1 mi
3:00 PM28 °FSleet. Low clouds.6 mph100%29.75 "Hg6 mi
2:52 PMN/ALight freezing rain.6 mphN/AN/A8 mi
2:00 PM28 °FLight snow. Ice fog.3 mph93%29.77 "Hg1 mi
1:00 PM28 °FLight snow. Ice fog.7 mph86%29.81 "Hg1 mi
12:00 PM32 °FMostly cloudy.9 mph47%29.84 "Hg15 mi
11:00 AM30 °FMostly cloudy.12 mph55%29.87 "Hg15 mi
10:00 AM30 °FMostly cloudy.12 mph51%29.94 "Hg15 mi
9:00 AM28 °FMore clouds than sun.12 mph55%30.00 "Hg15 mi
8:00 AM27 °FMostly cloudy.9 mph59%30.06 "Hg15 mi
7:00 AM25 °FOvercast.7 mph69%30.11 "Hg12 mi
6:00 AM25 °FOvercast.9 mph69%30.12 "Hg12 mi
5:00 AM25 °FOvercast.7 mph69%30.17 "Hg12 mi
4:00 AM21 °FOvercast.2 mph74%30.20 "Hg12 mi
3:00 AM23 °FOvercast.5 mph68%30.23 "Hg12 mi
2:00 AM19 °FOvercast.3 mph68%30.25 "Hg12 mi
1:00 AM19 °FOvercast.5 mph63%30.25 "Hg12 mi
12:00 AM19 °FOvercast.2 mph58%30.28 "Hg12 mi
11:00 PM
Jan 28
19 °FPassing clouds.3 mph58%30.29 "Hg12 mi
10:00 PM19 °FPassing clouds.6 mph58%30.30 "Hg12 mi
Weather by CustomWeather, © 2014

See weather overviewHow to use our weather pages